Regional Weather Roundup
Issued by NWS

Home | Current Version | Previous Version | Text Only | Print | Product List | Glossary Off
Versions: 1 2 3 4 5 6 7 8 9 10 11 12 13 14 15 16 17 18 19 20 21 22 23 24 25 26 27 28 29 30 31 32 33 34 35 36 37 38 39 40 41 42 43 44 45 46 47 48 49 50

000
ASUS44 KMEG 281210
RWRTN
TENNESSEE HOURLY STATE WEATHER ROUNDUP
NATIONAL WEATHER SERVICE MEMPHIS TN
600 AM CST SUN DEC 28 2014

TNZ002-004-019-021-049-052-054-088>092-281300-
WEST TENNESSEE

CITY           SKY/WX    TMP DP  RH WIND       PRES   REMARKS
MEMPHIS INTL   LGT RAIN  40  37  89 NE7       30.15F
NWS MEMPHIS      N/A     39 N/A N/A MISG        N/A
JACKSON        LGT RAIN  40  37  89 N10       30.18R WCI  33
DYERSBURG      CLOUDY    37  27  65 N7        30.20S WCI  32
UNION CITY     CLOUDY    36  36 100 NE8       30.17R WCI  29
PARIS          CLOUDY    36  34  93 N5        30.17R WCI  32
HUNTINGDON     CLOUDY    36  34  92 N6        30.16R WCI  31
LEXINGTON      CLOUDY    39  37  93 N8        30.13S WCI  34
SAVANNAH       CLOUDY    43  43 100 N13       30.13R
$$

TNZ008-025-027-028-033-062-065-066-281300-
NORTH MIDDLE TENNESSEE

CITY           SKY/WX    TMP DP  RH WIND       PRES   REMARKS
NASHVILLE      LGT RAIN  42  41  96 N12       30.12R FOG
CLARKSVILLE    CLOUDY    38  36  92 N10       30.16R WCI  31
SMYRNA         RAIN      45  44  96 N15       30.12R FOG
COOKEVILLE     CLOUDY    48  48 100 CALM      30.07R
CROSSVILLE     LGT RAIN  50  47  89 W5        30.06R FOG
$$

TNZ061-075-076-078-094-096-097-281300-
SOUTH MIDDLE TENNESSEE

CITY           SKY/WX    TMP DP  RH WIND       PRES   REMARKS
FAYETTEVILLE   CLOUDY    48  48 100 N7        30.06S
TULLAHOMA      CLOUDY    48  48 100 N5        30.07S
WINCHESTER     CLOUDY    50  48  93 CALM      30.07R
MCMINNVILLE    CLOUDY    50  50 100 CALM      30.05F
COLUMBIA       CLOUDY   N/A N/A N/A N8        30.08R
SHELBYVILLE    CLOUDY    50  50 100 CALM      30.08R
$$

TNZ017-018-042-046-047-281300-
NORTHEAST TENNESSEE

CITY           SKY/WX    TMP DP  RH WIND       PRES   REMARKS
TRI CITIES     CLOUDY    46  42  86 CALM      30.07R
ELIZABETHTON   PTSUNNY   45  36  70 CALM      30.07R
$$

TNZ012-013-036-069-073-074-281300-
CENTRAL EAST TENNESSEE

CITY           SKY/WX    TMP DP  RH WIND       PRES   REMARKS
KNOXVILLE      CLOUDY    48  43  82 NE3       30.05F
OAK RIDGE      CLOUDY    52  50  93 VRB5      30.06S FOG
GATLINBURG     MOSUNNY   45  39  81 CALM      30.04F
MORRISTOWN     CLOUDY    46  45  93 CALM      30.05F
$$

TNZ083-085-099-281300-
SOUTHEAST TENNESSEE

CITY           SKY/WX    TMP DP  RH WIND       PRES   REMARKS
CHATTANOOGA    HVY RAIN  52  51  97 CALM      30.05S FOG
$$

SKY/WX REPORTED AS FAIR MEANS FEW OR NO CLOUDS BELOW
12 THOUSAND FEET.



USA.gov is the U.S. government's official web portal to all federal, state and local government web resources and services.